Terug naar catalogus

KORSAT-4

ActiefWetenschapVLEO
NORAD 66293·PAYLOAD·🇰🇷 South Korea

Gelanceerd Nov 2, 2025 vanaf Cape Canaveral Space Force Station

Loading…

Volgende Passages (komende 24 uur)

TLE

VerouderendSource: Space-Track

Epoch: Sep 13, 2026, 11:30 UTC

1 66293U 25248A   26256.47950577  .00000965  00000-0  97652-4 0  9995
2 66293  45.4103  61.8065 0001608 286.7860  73.2842 14.98747001 47304

Volg KORSAT-4 in realtime met AllMySat

Download on the App Store